Date,TemperatureHighF,TemperatureAvgF,TemperatureLowF,DewpointHighF,DewpointAvgF,DewpointLowF,HumidityHigh,HumidityAvg,HumidityLow,PressureMaxIn,PressureMinIn,WindSpeedMaxMPH,WindSpeedAvgMPH,GustSpeedMaxMPH,PrecipitationSumIn
2013-1-1,44.6,42.1,39.7,35.6,32.5,28.4,77,69,60,30.00,29.88,8,0,10,0.00
2013-1-2,39.7,36.8,34.2,32.7,28.9,25.2,77,73,67,30.12,29.97,7,0,9,0.00
2013-1-9,54.9,48.6,41.9,46.8,43.2,36.3,91,82,51,30.36,30.21,15,1,16,0.01
2013-1-10,54.9,49.4,44.2,37.8,35.2,32.7,69,58,47,30.57,30.36,13,1,15,0.00
2013-1-11,45.3,42.9,38.8,44.1,38.7,32.7,100,86,68,30.48,30.08,4,0,4,0.02
2013-1-12,52.9,45.6,43.3,50.4,45.3,43.3,100,99,90,30.16,30.07,5,0,6,0.01
2013-1-13,56.7,50.1,43.7,56.7,50.1,43.7,100,100,100,30.13,29.95,5,0,6,0.01
2013-1-14,60.6,54.4,41.4,60.6,50.8,39.6,100,88,73,30.27,29.92,14,1,16,0.11
2013-1-15,41.4,40.0,37.0,41.0,39.8,36.9,100,99,94,30.32,30.13,7,0,9,0.81
2013-1-16,42.4,39.1,36.1,42.4,39.1,36.1,100,100,100,30.14,29.83,7,0,10,0.27
2013-1-17,44.2,42.2,39.7,43.0,38.0,34.0,100,86,69,30.12,29.95,9,1,9,0.02
2013-1-18,39.7,35.5,30.9,34.3,24.2,17.6,81,64,47,30.47,30.01,18,2,20,0.00
2013-1-19,54.3,42.5,32.5,37.0,31.9,25.5,83,67,51,30.41,29.95,12,1,13,0.00
2013-1-20,60.1,47.4,38.7,40.1,30.4,17.8,74,53,30,30.05,29.80,16,2,18,0.00
2013-1-21,47.1,38.5,32.0,33.3,25.0,17.4,65,58,49,30.07,29.76,21,2,24,0.00
2013-1-22,31.8,22.7,19.2,17.8,6.0,2.8,59,48,39,30.28,29.89,22,4,24,0.00
2013-1-23,27.0,22.1,15.6,17.6,7.6,4.6,78,54,42,30.34,30.13,13,1,14,0.00
2013-1-24,27.7,22.9,18.7,19.2,14.1,8.4,92,71,45,30.51,30.07,17,2,23,0.01
2013-1-25,24.8,22.1,19.8,22.5,12.4,5.9,98,67,50,30.51,30.06,8,0,8,0.00
2013-1-26,35.4,29.5,24.1,27.0,24.2,20.8,88,81,67,30.42,30.08,12,1,14,0.03
2013-1-27,39.4,32.4,28.2,25.7,23.8,20.8,85,71,56,30.58,30.42,7,0,9,0.00
2013-1-28,48.2,38.2,31.8,45.5,35.9,25.7,99,92,78,30.49,30.04,11,0,11,0.17
2013-1-29,70.0,55.8,45.0,59.0,51.2,44.2,100,86,67,30.11,29.95,8,0,9,0.00
2013-1-30,71.4,63.6,57.6,65.8,60.8,54.7,100,91,78,29.95,29.17,19,2,19,0.85
2013-1-31,64.0,45.3,31.5,64.0,33.4,18.3,100,64,45,29.90,29.11,24,5,25,0.33
2013-2-1,34.3,28.0,20.8,29.7,16.5,9.0,94,62,48,30.38,29.78,22,4,26,0.00
2013-2-2,33.1,25.6,17.2,28.8,17.7,8.8,96,73,54,30.38,29.99,12,1,13,0.00
2013-2-3,34.5,31.2,26.8,31.6,28.8,22.8,100,91,65,29.99,29.82,12,0,12,0.03
2013-2-4,37.4,32.2,26.1,28.2,21.4,16.5,69,64,57,30.09,29.88,23,1,28,0.00
2013-2-5,42.6,38.1,34.3,33.6,30.4,26.6,82,74,67,29.91,29.83,6,0,6,0.00
2013-2-6,46.8,39.5,33.8,34.9,31.3,26.2,88,73,58,30.33,29.91,17,2,18,0.00
2013-2-7,41.7,36.3,31.3,33.4,29.1,24.6,85,75,66,30.43,30.18,8,1,12,0.00
2013-2-8,43.5,38.4,34.0,41.0,35.5,27.1,99,90,67,30.18,29.72,23,3,26,0.22
2013-2-9,41.2,35.9,30.9,27.3,23.9,21.0,74,62,50,30.37,29.89,23,5,25,0.00
2013-2-10,45.7,36.8,26.6,32.5,24.2,19.4,78,61,42,30.47,30.22,7,0,9,0.00
2013-2-11,53.8,45.6,38.3,53.1,44.7,32.7,100,97,60,30.22,29.69,9,1,11,0.29
2013-2-12,57.6,50.5,42.6,39.7,34.9,32.0,72,55,44,29.97,29.78,20,2,20,0.01
2013-2-13,47.5,40.0,35.4,40.3,34.5,30.2,99,81,64,29.93,29.63,11,1,12,0.20
2013-2-14,50.4,41.2,34.3,35.8,33.7,31.1,99,76,53,30.00,29.75,9,1,11,0.01
2013-2-15,61.7,45.2,34.5,43.0,37.6,33.3,97,78,44,30.01,29.86,17,1,17,0.08
2013-2-16,39.9,37.1,32.5,37.4,32.8,22.1,99,85,61,29.99,29.81,13,1,15,0.01
2013-2-17,32.7,29.3,26.1,22.3,16.8,11.7,72,60,47,30.19,29.81,23,6,24,0.00
2013-2-18,43.5,32.3,22.3,24.4,16.8,12.4,67,53,40,30.37,30.14,12,1,15,0.00
2013-2-19,45.7,40.9,37.2,44.1,34.6,24.6,97,79,57,30.15,29.71,12,1,15,0.10
2013-2-20,39.9,34.6,26.8,29.5,21.2,14.0,66,58,50,30.15,29.82,28,5,28,0.00
2013-2-21,39.6,31.6,25.5,23.4,19.2,14.0,67,60,51,30.30,30.12,19,4,20,0.00
2013-2-22,34.9,33.3,31.6,33.3,28.6,22.6,97,83,68,30.36,30.19,8,0,8,0.06
2013-2-23,45.9,39.8,34.0,45.9,39.7,33.3,100,99,97,30.20,29.78,6,0,6,0.07
2013-2-24,52.5,43.8,34.9,44.1,36.0,23.9,99,76,49,30.09,29.77,19,3,19,0.00
2013-2-25,48.2,39.0,31.3,31.6,27.8,23.5,75,64,51,30.20,30.08,11,1,12,0.00
2013-2-26,45.5,39.5,33.3,45.3,36.6,27.9,100,90,72,30.20,29.57,16,2,18,0.62
2013-2-27,57.6,48.5,40.6,46.6,42.5,37.0,100,81,59,29.67,29.49,10,1,11,0.02
2013-2-28,48.0,44.5,41.5,40.3,34.7,30.2,88,69,51,29.71,29.60,13,2,14,0.01
2013-3-1,44.2,41.8,37.6,34.9,32.6,29.3,75,70,61,29.86,29.70,13,3,16,0.00
2013-3-2,37.8,34.9,32.0,29.1,26.4,24.3,77,71,62,29.87,29.79,14,4,18,0.00
2013-3-3,42.1,35.0,30.6,26.4,24.5,21.4,78,66,53,29.89,29.77,18,4,19,0.00
2013-3-4,44.8,36.2,30.0,26.4,22.7,19.4,70,58,46,30.01,29.89,17,4,20,0.00
2013-3-5,52.2,41.7,32.9,34.3,26.4,21.6,86,56,31,30.06,29.78,10,1,11,0.00
2013-3-6,40.5,36.6,34.0,37.9,35.5,33.3,100,96,83,29.97,29.56,17,2,21,0.85
2013-3-7,49.8,42.9,36.9,35.6,33.4,31.3,84,70,54,30.12,29.97,19,4,20,0.00
2013-3-8,49.8,43.3,37.9,34.9,32.7,30.2,78,67,56,30.24,30.10,20,5,25,0.00
2013-3-9,61.2,48.1,36.3,34.0,31.4,28.6,74,54,34,30.33,30.22,12,1,13,0.00
2013-3-10,64.8,50.8,37.9,39.9,32.6,28.0,79,52,28,30.31,30.19,5,0,11,0.00
2013-3-11,61.9,52.3,44.1,54.3,48.1,40.3,98,86,74,30.23,29.91,9,1,13,0.00
2013-3-12,58.8,54.4,43.5,58.3,49.5,35.4,100,84,65,29.94,29.66,14,3,18,0.72
2013-3-13,50.7,43.1,35.8,36.5,31.4,23.9,84,64,42,30.05,29.87,25,3,25,0.72
2013-3-14,46.0,38.7,33.4,25.2,23.3,20.7,66,54,40,30.12,30.00,20,4,20,0.00
2013-3-15,59.0,45.7,32.5,38.5,30.2,23.7,72,55,39,30.08,29.76,12,1,15,0.00
2013-3-16,62.2,50.6,41.5,52.9,41.5,36.7,85,71,58,29.88,29.60,9,0,12,0.00
2013-3-17,42.1,39.5,34.9,37.6,34.3,30.9,92,82,68,30.26,29.87,5,0,6,0.00
2013-3-18,39.4,37.4,32.7,38.7,33.8,27.7,100,88,65,30.31,29.86,9,1,12,0.34
2013-3-19,60.3,46.9,37.8,45.5,35.2,17.4,100,71,25,29.89,29.69,20,2,22,0.34
2013-3-20,54.1,46.2,38.7,28.4,22.1,17.8,55,38,31,29.97,29.74,17,2,22,0.00
2013-3-21,43.2,35.3,30.4,31.3,21.3,14.5,87,57,45,29.88,29.73,18,4,18,0.00
2013-3-22,48.0,37.4,27.3,27.0,21.9,16.0,67,54,43,29.98,29.86,16,2,19,0.00
2013-3-23,54.0,43.4,32.2,31.8,27.7,23.7,73,55,40,30.02,29.88,12,2,14,0.00
2013-3-24,44.1,39.0,34.5,34.7,28.7,25.5,98,68,53,29.98,29.63,8,0,12,0.03
2013-3-25,38.3,35.7,33.8,37.6,35.3,33.4,100,98,96,29.68,29.49,7,0,11,0.57
2013-3-26,49.5,42.2,34.7,37.9,35.1,32.4,100,78,53,29.96,29.68,17,2,17,0.04
2013-3-27,50.4,44.1,38.7,36.3,33.1,31.3,77,66,53,30.10,29.96,21,4,21,0.00
2013-3-28,48.0,43.8,38.5,36.1,33.7,30.6,75,68,58,30.21,30.06,17,3,17,0.00
2013-3-29,55.9,48.5,41.4,38.7,35.3,32.5,77,61,46,30.24,30.12,12,2,14,0.00
2013-3-30,60.1,50.8,40.6,37.9,33.9,31.8,77,54,36,30.20,30.08,10,1,12,0.00
2013-3-31,55.8,49.8,45.0,52.0,44.1,33.8,99,82,60,30.10,29.72,8,0,8,0.02
2013-4-1,65.8,51.4,43.0,49.6,42.8,28.8,100,75,48,29.96,29.69,19,3,22,0.02
2013-4-2,50.0,43.8,38.3,28.8,22.9,20.5,56,44,33,30.15,29.96,18,3,18,0.00
2013-4-3,52.2,42.8,32.7,26.4,22.6,19.8,62,45,30,30.37,30.15,17,2,20,0.00
2013-4-4,51.3,40.8,30.7,38.8,25.3,19.0,96,55,36,30.39,30.07,8,0,8,0.07
2013-4-5,65.3,50.8,38.8,42.4,37.6,29.3,100,67,35,30.07,29.80,14,2,14,0.19
2013-4-6,58.1,48.8,39.7,36.1,29.0,25.0,70,47,33,30.30,30.01,11,1,14,0.00
2013-4-7,71.1,55.5,40.5,48.0,41.8,32.5,86,62,43,30.26,29.96,15,2,18,0.00
2013-4-8,82.8,69.1,54.3,57.4,52.0,46.4,75,56,38,30.05,29.91,10,1,11,0.00
2013-4-9,87.8,75.6,63.0,63.3,58.9,55.0,77,58,41,30.05,29.89,10,1,14,0.00
2013-4-10,92.8,80.1,66.0,66.2,61.5,57.7,75,54,39,29.94,29.74,12,1,16,0.00
2013-4-11,88.3,74.2,56.8,68.0,62.2,55.0,94,68,44,29.84,29.69,15,1,16,0.00
2013-4-12,75.6,61.5,52.9,71.2,60.2,52.3,100,96,87,29.78,29.53,12,2,12,0.62
2013-4-13,70.9,59.1,48.0,55.8,46.8,41.5,94,65,42,29.91,29.71,13,1,17,0.00
2013-4-14,68.4,58.3,47.1,49.5,45.4,41.4,86,64,44,30.11,29.91,11,1,11,0.00
2013-4-15,62.8,59.3,55.8,54.9,51.6,48.4,86,76,70,30.26,30.10,8,1,9,0.00
2013-4-16,75.9,64.7,55.9,64.2,58.7,51.8,93,82,65,30.28,30.09,11,1,11,0.00
2013-4-17,78.6,67.7,60.4,66.9,62.7,59.4,100,85,65,30.20,30.08,11,1,12,0.01
2013-4-18,78.6,67.1,60.6,69.1,62.7,58.8,100,87,66,30.19,29.97,11,0,13,0.03
2013-4-19,79.3,68.4,51.6,70.9,64.6,50.7,100,88,72,29.97,29.55,26,2,26,1.08
2013-4-20,60.1,53.6,47.1,50.7,38.2,32.5,97,57,41,30.30,29.75,18,3,18,0.05
2013-4-21,56.7,48.5,41.5,37.8,31.9,27.9,72,53,39,30.57,30.30,8,0,10,0.00
2013-4-22,56.5,48.6,39.6,43.3,40.1,35.6,88,73,60,30.56,30.37,7,0,8,0.00
2013-4-23,61.9,52.7,47.5,49.8,45.9,41.2,90,78,64,30.38,30.10,6,0,7,0.00
2013-4-24,79.7,62.7,46.0,63.3,54.4,45.3,99,77,51,30.10,29.77,19,1,21,0.00
2013-4-25,65.8,56.0,46.6,54.3,40.8,36.7,81,58,36,30.29,29.93,23,2,23,0.01
2013-4-26,64.6,53.9,47.8,46.2,42.1,38.7,80,65,45,30.43,30.27,9,0,9,0.00
2013-5-6,61.3,60.0,59.0,59.9,59.2,58.6,100,97,95,30.06,30.03,4,0,6,0.00
2013-5-7,63.7,60.6,58.5,63.7,60.5,58.5,100,100,99,30.04,29.89,8,0,8,0.33
2013-5-8,74.5,61.3,57.7,63.5,59.2,56.1,100,94,65,29.98,29.90,9,0,21,0.15
2013-5-9,75.9,62.9,55.2,67.6,60.5,55.2,100,93,68,29.97,29.89,8,0,10,0.13
2013-5-10,86.4,71.8,58.3,68.7,64.1,57.9,100,80,51,29.99,29.83,10,0,11,0.43
2013-5-11,79.3,68.4,63.7,71.1,66.1,63.7,100,93,69,29.90,29.66,11,0,12,0.49
2013-5-12,64.8,60.7,52.5,64.8,46.5,36.0,100,62,40,30.01,29.71,19,3,21,0.12
2013-5-13,61.2,53.1,43.9,41.2,35.5,32.0,79,53,36,30.14,30.00,14,2,16,0.00
2013-5-14,64.8,54.7,42.8,46.2,39.0,33.4,81,56,40,30.19,30.02,9,0,10,0.00
2013-5-15,87.3,69.0,55.0,69.4,58.7,46.2,83,71,54,30.02,29.65,10,0,18,0.00
2013-5-16,83.8,75.7,67.8,67.6,64.4,59.2,80,68,55,29.89,29.72,16,1,16,0.00
2013-5-17,85.6,74.5,63.1,64.4,60.3,55.6,88,63,44,30.10,29.88,10,1,11,0.00
2013-5-18,68.5,63.3,59.9,62.2,59.7,55.6,100,89,64,30.21,30.10,5,0,6,0.01
2013-5-19,78.3,66.7,60.1,70.7,65.3,60.1,100,96,77,30.18,30.05,4,0,5,0.01
2013-5-20,82.9,72.4,65.8,75.0,69.9,65.8,100,92,74,30.09,29.95,7,0,8,0.00
2013-5-21,85.3,74.5,68.4,76.1,71.6,68.4,100,91,73,29.97,29.85,8,0,9,0.00
2013-5-22,89.4,78.3,70.2,78.6,73.7,68.4,100,87,68,29.91,29.80,14,1,14,0.04
2013-5-23,83.1,73.6,64.6,73.6,70.8,64.0,100,92,70,29.88,29.72,12,1,14,0.20
2013-5-24,64.6,57.8,49.8,64.6,52.0,39.4,100,82,63,30.12,29.71,17,3,22,0.24
2013-5-25,66.6,55.6,45.3,47.1,41.4,37.0,75,60,41,30.17,30.06,17,4,19,0.00
2013-5-26,73.8,62.1,50.5,48.0,43.6,40.5,69,52,36,30.19,30.09,11,2,13,0.00
2013-5-27,72.3,65.0,54.5,54.3,49.1,43.9,71,57,44,30.26,30.15,5,0,7,0.00
2013-5-28,85.8,69.6,59.7,74.1,64.0,53.2,100,83,64,30.17,30.02,14,0,14,0.49
2013-5-29,90.7,78.0,66.7,76.5,71.1,66.7,100,82,57,30.10,30.03,8,0,11,0.01
2013-5-30,93.6,80.9,68.9,77.2,72.0,66.6,94,76,53,30.15,30.07,8,0,10,0.00
2013-5-31,92.7,80.6,68.4,74.7,70.8,66.6,95,74,54,30.12,29.99,10,1,12,0.00
2013-6-1,93.4,81.5,69.6,77.0,72.0,67.3,92,74,55,30.01,29.88,10,1,12,0.00
2013-6-2,85.8,77.8,70.0,76.6,72.0,68.5,100,83,71,29.89,29.80,14,1,14,0.44
2013-6-3,81.9,72.2,67.3,73.8,70.1,62.6,100,94,72,29.92,29.78,8,0,10,0.68
2013-6-4,78.3,69.0,61.2,62.6,54.8,48.6,80,62,43,30.09,29.92,12,1,12,0.00
2013-6-5,83.1,70.8,58.5,65.3,59.4,54.3,92,68,52,30.15,30.02,11,0,11,0.00
2013-6-6,74.8,68.3,63.3,68.0,63.8,57.7,100,86,73,30.06,29.82,9,0,9,0.24
2013-6-7,70.5,68.7,66.0,70.5,68.7,66.0,100,100,100,29.83,29.54,13,1,13,2.15
2013-6-8,82.2,72.2,66.0,70.3,66.5,62.8,100,84,57,30.06,29.66,11,1,15,0.01
2013-6-9,83.7,74.5,66.6,76.3,69.9,63.7,96,86,67,30.16,30.05,6,0,6,0.00
2013-6-10,79.3,72.8,68.9,78.4,72.6,68.9,100,99,94,30.06,29.75,11,0,11,1.94
2013-6-11,83.1,74.5,66.4,72.3,69.1,66.4,100,85,68,29.82,29.74,13,1,13,0.73
2013-6-12,89.4,79.9,69.3,75.0,70.8,65.5,89,75,55,29.83,29.74,13,1,14,0.00
2013-6-13,89.2,76.5,69.6,77.2,71.1,61.7,100,84,62,29.77,29.42,17,1,22,0.00
2013-6-14,78.8,70.4,60.8,62.4,59.9,56.1,95,71,52,29.94,29.55,15,2,17,0.01
2013-6-15,83.3,74.6,65.8,66.6,62.6,59.7,81,67,52,30.04,29.94,11,1,14,0.00
2013-6-16,85.6,76.3,67.6,73.9,69.3,62.6,92,80,64,29.99,29.85,8,0,12,0.00
2013-6-17,86.5,79.2,72.3,77.4,73.2,69.4,92,82,69,29.93,29.84,7,0,8,0.02
2013-6-18,78.1,72.1,66.0,75.4,71.2,66.0,100,97,87,29.88,29.76,7,0,7,0.17
2013-6-19,78.3,70.3,65.7,68.9,66.3,62.4,100,88,70,30.12,29.85,6,0,8,0.00
2013-6-20,80.6,71.7,63.9,70.5,64.7,58.3,100,80,59,30.24,30.12,9,0,11,0.00
2013-6-21,84.9,73.3,60.4,67.8,61.9,57.0,93,69,46,30.28,30.19,5,0,7,0.00
2013-6-22,90.0,76.5,64.9,75.0,69.4,64.9,100,81,58,30.22,30.10,9,0,11,0.00
2013-6-23,85.8,76.0,70.0,78.4,73.5,69.1,100,92,77,30.15,30.04,6,0,6,0.73
2013-6-24,92.1,78.9,72.3,80.1,75.1,72.1,100,89,60,30.09,30.00,13,0,13,0.04
2013-6-25,94.3,81.6,70.2,79.0,74.8,68.7,100,82,61,30.01,29.86,11,0,12,0.09
2013-6-26,91.4,79.0,70.5,80.1,73.9,69.1,98,85,65,29.89,29.77,7,0,7,0.11
2013-6-27,82.9,74.8,70.0,77.9,73.4,69.6,100,96,84,29.81,29.60,8,0,8,0.07
2013-6-28,90.3,77.1,70.2,79.3,73.7,66.9,100,90,67,29.61,29.44,18,0,18,0.36
2013-7-8,86.9,80.3,72.3,77.4,74.3,70.2,100,83,65,30.08,30.00,11,0,15,10.80
2013-7-9,86.5,79.0,73.0,79.9,75.9,72.3,100,90,77,30.08,29.96,6,0,8,0.00
2013-7-10,91.0,79.9,73.0,82.8,77.7,73.0,100,94,74,29.98,29.82,17,0,17,0.36
2013-7-11,85.5,77.8,73.2,77.2,74.5,72.1,100,90,71,29.89,29.81,8,0,8,0.06
2013-7-12,77.7,70.5,67.5,75.9,70.1,67.5,100,99,89,29.99,29.86,8,0,8,1.57
2013-7-13,88.0,77.2,70.0,79.9,74.2,70.0,100,91,75,30.24,29.99,5,0,6,0.00
2013-7-14,93.0,81.9,74.5,80.1,77.2,74.3,100,87,64,30.31,30.23,8,0,9,0.00
2013-7-15,94.5,83.8,73.0,80.4,77.1,73.0,100,82,61,30.27,30.15,5,0,7,0.00
2013-7-16,95.4,87.0,80.4,80.6,76.9,74.1,85,73,54,30.20,30.12,8,0,8,0.00
2013-7-17,95.5,86.0,78.4,81.1,77.4,74.3,89,76,58,30.17,30.05,6,0,6,0.00
2013-7-18,97.3,87.2,78.3,84.2,80.5,76.5,96,81,64,30.08,29.96,7,0,8,0.00
2013-7-19,97.0,87.6,79.0,85.3,80.9,76.8,95,81,65,29.98,29.83,10,0,13,0.00
2013-7-20,94.8,85.3,78.3,81.9,78.8,75.4,97,82,62,29.87,29.75,9,0,10,0.00
2013-7-21,93.0,81.6,75.4,78.4,75.6,72.3,96,83,62,29.91,29.84,7,0,8,0.00
2013-7-22,91.4,81.5,73.9,80.2,76.9,73.4,100,87,67,29.89,29.73,8,0,8,0.04
2013-7-23,86.7,79.6,73.6,76.1,74.2,72.1,100,85,65,29.74,29.61,14,1,15,0.01
2013-7-24,84.4,78.6,75.2,73.6,70.2,64.0,90,76,64,29.87,29.65,9,1,11,0.00
2013-7-25,82.4,72.8,64.0,69.1,62.7,56.8,84,71,56,30.00,29.87,7,0,8,0.00
2013-7-26,84.9,74.2,65.1,68.7,66.0,64.0,96,77,54,30.06,29.99,3,0,8,0.00
2013-7-27,87.4,74.5,68.2,75.9,71.3,67.5,100,91,66,30.03,29.88,11,0,13,0.47
2013-7-28,84.9,74.6,68.4,77.7,72.8,68.4,100,95,75,29.96,29.85,6,0,7,0.04
2013-7-29,81.9,74.4,66.9,72.7,64.4,61.0,98,73,52,30.13,29.94,11,0,11,0.00
2013-7-30,83.7,74.5,65.7,68.4,64.3,60.6,87,71,56,30.20,30.11,10,0,10,0.00
2013-7-31,80.4,73.9,68.2,74.1,70.0,66.6,100,88,73,30.12,29.99,11,0,11,0.19
2013-8-1,82.8,73.4,68.4,77.4,72.3,68.4,100,97,83,29.99,29.78,7,0,8,0.35
2013-8-2,87.4,77.3,69.1,73.6,70.1,67.3,100,80,58,29.94,29.82,11,0,11,0.00
2013-8-3,81.1,73.7,69.3,71.8,69.6,68.2,100,88,69,29.94,29.88,6,0,7,0.03
2013-8-4,80.6,73.3,66.7,69.3,64.2,59.5,100,75,53,30.00,29.87,16,1,16,0.00
2013-8-5,82.9,72.9,63.9,65.5,61.5,57.9,82,68,50,30.08,29.98,7,0,8,0.00
2013-8-6,72.7,70.0,67.8,70.3,68.1,64.0,100,94,82,30.05,29.97,7,0,8,0.02
2013-8-7,84.7,76.2,70.2,77.4,72.9,69.3,99,90,78,30.04,29.96,9,0,12,0.00
2013-8-8,87.4,79.6,74.5,79.3,76.4,73.9,99,90,76,30.00,29.94,11,1,12,0.00
2013-8-9,92.1,83.6,76.5,81.5,78.0,75.2,98,84,69,29.94,29.81,13,1,13,0.00
2013-8-10,84.4,78.3,73.2,75.2,72.1,68.5,94,82,67,30.05,29.91,6,0,6,0.01
2013-8-11,85.6,77.6,72.1,75.0,72.2,70.0,96,84,65,30.08,29.98,7,0,8,0.00
2013-8-12,89.6,80.0,71.6,77.4,73.3,70.5,100,82,55,29.99,29.88,10,0,10,0.00
2013-8-13,86.4,77.9,69.6,76.6,74.1,68.5,100,89,68,29.88,29.70,20,1,23,0.18
2013-8-14,74.5,68.7,61.3,71.1,58.2,53.2,100,70,58,30.07,29.78,20,2,20,0.00
2013-8-15,79.0,69.2,59.0,61.7,57.9,55.0,88,69,48,30.16,30.06,7,0,8,0.00
2013-8-16,80.1,69.9,59.7,63.1,60.5,58.6,96,74,53,30.17,30.10,9,0,10,0.00
2013-8-17,80.2,71.7,63.1,67.3,63.6,60.6,94,77,56,30.23,30.16,9,0,9,0.00
2013-8-18,71.8,68.3,64.2,68.2,66.1,63.0,100,93,75,30.20,30.13,5,0,5,0.21
2013-8-19,73.6,69.0,63.3,70.5,67.3,63.3,100,94,87,30.15,30.05,7,0,7,0.00
2013-8-20,87.4,76.7,66.7,75.9,72.1,66.7,100,87,67,30.14,30.05,9,0,9,0.00
2013-8-21,90.3,79.1,71.2,78.1,75.0,71.2,100,89,65,30.16,30.04,9,0,11,0.16
2013-8-22,87.3,79.2,72.1,74.7,72.9,71.2,100,83,63,30.07,29.90,11,1,11,0.00
2013-8-23,77.4,72.7,64.8,73.2,68.3,61.2,100,86,71,30.09,29.90,5,0,7,0.12
2013-8-24,82.6,72.7,63.9,67.8,64.6,61.2,99,77,55,30.30,30.09,6,0,7,0.00
2013-8-25,84.6,72.4,63.1,68.7,64.1,59.2,100,77,50,30.38,30.25,7,0,10,0.00
2013-8-26,88.9,75.1,63.9,71.1,66.1,60.3,90,75,53,30.27,29.99,9,0,9,0.00
2013-8-27,89.4,80.3,71.8,77.4,72.9,68.4,90,79,63,29.99,29.84,13,1,15,0.00
2013-8-28,80.1,76.1,73.9,77.4,74.3,72.1,100,95,82,29.88,29.79,6,0,7,0.18
2013-8-29,84.7,77.3,72.7,75.9,73.6,71.2,100,89,69,29.99,29.79,5,0,5,0.00
2013-8-30,86.5,77.9,70.9,76.8,73.4,70.0,99,87,71,30.01,29.86,12,0,12,0.00
2013-8-31,90.5,79.8,71.2,78.8,74.9,70.9,99,86,68,29.88,29.77,10,0,13,0.00
2013-9-1,92.8,80.7,70.0,79.0,74.8,69.6,100,84,60,29.82,29.73,8,0,8,0.00
2013-9-2,89.2,79.3,71.2,79.5,75.4,70.3,100,89,68,29.78,29.69,9,0,9,0.18
2013-9-3,83.7,78.1,71.4,76.6,68.6,60.8,97,74,54,29.93,29.69,11,1,13,0.00
2013-9-4,84.4,72.6,63.0,65.8,61.4,58.3,85,69,46,30.05,29.92,8,0,8,0.00
2013-9-5,83.7,74.5,65.5,68.9,63.6,55.4,90,70,56,30.10,29.97,12,1,12,0.00
2013-9-6,78.6,68.5,59.4,59.4,55.3,49.6,80,64,48,30.23,30.09,8,0,9,0.00
2013-9-7,81.5,69.6,58.1,68.0,62.7,55.9,94,80,63,30.11,29.91,9,0,9,0.00
2013-9-8,87.1,76.6,66.7,72.1,68.3,63.1,97,77,59,30.01,29.84,10,0,10,0.00
2013-9-9,80.1,72.1,64.8,71.4,63.5,55.4,94,75,67,30.17,30.01,8,0,9,0.00
2013-9-10,91.8,80.4,72.0,80.1,75.4,70.9,100,86,67,30.15,30.05,9,0,10,0.00
2013-9-11,95.0,83.6,74.1,81.9,77.0,73.9,100,82,60,30.11,29.97,9,0,12,0.00
2013-9-12,92.7,78.4,70.9,79.5,74.1,69.6,100,88,62,29.97,29.71,13,0,14,0.26
2013-9-13,77.2,70.8,62.8,71.1,62.8,54.3,100,78,52,29.90,29.67,15,2,15,0.01
2013-9-14,69.4,61.7,55.0,54.7,51.4,48.9,83,70,56,30.14,29.90,13,1,14,0.00
2013-9-15,77.5,65.0,52.5,61.9,56.5,50.0,95,76,55,30.22,30.06,9,0,10,0.00
2013-9-16,72.3,65.9,62.2,63.9,61.3,58.6,99,86,69,30.20,30.01,11,0,12,0.01
2013-9-17,69.3,60.7,52.7,58.8,50.6,46.0,87,71,46,30.40,30.19,6,0,8,0.00
2013-9-18,73.8,60.9,50.4,55.4,52.2,48.7,97,75,49,30.32,30.16,2,0,10,0.00
2013-9-19,78.3,65.9,54.9,64.0,59.4,54.1,100,81,61,30.18,30.05,9,0,9,0.00
2013-9-20,82.6,69.0,58.5,68.7,62.9,57.9,99,82,61,30.06,29.93,9,0,11,0.00
2013-9-21,76.5,67.2,61.5,68.4,64.6,60.1,100,92,73,29.95,29.65,11,1,12,0.41
2013-9-22,71.6,65.3,59.5,63.9,58.9,52.5,100,81,61,29.91,29.70,12,1,12,0.00
2013-9-23,65.1,59.6,55.9,52.7,50.5,47.8,83,72,61,30.06,29.91,10,1,11,0.00
2013-9-24,71.2,60.7,50.7,56.8,51.9,47.3,89,74,55,30.09,29.92,9,0,9,0.00
2013-9-25,75.6,63.6,53.2,57.9,53.4,50.2,94,72,44,29.96,29.85,6,0,6,0.00
2013-9-26,75.6,65.4,58.5,60.4,57.8,55.4,93,78,57,30.04,29.89,10,0,12,0.01
2013-9-27,72.7,64.7,59.0,63.1,60.0,56.8,97,85,70,30.21,30.04,9,0,10,0.00
2013-9-28,69.4,63.9,58.8,59.9,58.2,56.5,95,82,68,30.28,30.19,12,0,13,0.00
2013-9-29,74.3,63.5,55.0,62.4,58.6,54.5,99,85,62,30.19,30.03,8,0,9,0.00
2013-9-30,75.9,64.6,55.4,62.1,57.9,54.1,97,80,59,30.07,29.95,9,0,11,0.00
2013-10-1,82.6,69.3,59.0,66.7,62.7,57.2,97,81,57,30.05,29.94,12,0,12,0.00
2013-10-2,85.6,74.1,62.1,69.4,64.7,60.1,94,74,55,30.06,29.97,13,1,13,0.00
2013-10-3,83.7,73.4,63.0,71.4,66.9,61.9,97,81,63,30.09,30.01,8,0,9,0.00
2013-10-4,88.2,75.2,64.6,73.2,69.1,64.6,100,83,59,30.06,29.97,10,0,10,0.00
2013-10-5,88.0,77.4,68.4,73.8,70.5,66.7,96,81,60,30.06,29.96,11,0,11,0.00
2013-10-6,87.6,76.7,67.8,74.3,70.5,67.5,100,82,61,29.99,29.88,16,2,18,0.00
2013-10-7,75.0,67.2,59.5,73.2,64.9,50.5,100,92,69,30.02,29.76,23,4,23,1.19
2013-10-8,67.1,59.9,54.3,54.3,51.4,48.9,84,74,61,30.25,30.02,15,1,15,0.00
2013-10-9,61.0,57.6,54.7,55.4,53.4,50.7,99,86,78,30.28,30.17,15,1,17,0.19
2013-10-10,58.5,56.1,54.0,58.3,56.1,53.8,100,100,98,30.17,29.94,13,2,13,1.57
2013-10-11,62.8,60.4,56.7,62.8,60.4,56.7,100,100,100,29.96,29.89,13,2,13,2.73
2013-10-12,67.5,62.7,60.6,63.9,62.0,60.6,100,98,86,30.12,29.94,15,2,19,2.73
2013-10-13,64.4,61.4,57.9,61.7,60.1,56.5,100,96,88,30.29,30.12,16,2,19,0.03
2013-10-14,70.3,61.6,56.8,60.8,57.8,55.8,97,88,70,30.31,30.19,11,1,12,0.00
2013-10-15,72.7,62.5,54.1,60.8,56.1,51.4,100,82,50,30.22,30.06,11,0,11,0.02
2013-10-16,72.0,65.0,60.3,66.6,63.2,60.1,100,94,82,30.06,29.88,12,0,12,0.01
2013-10-17,75.9,67.7,61.5,68.7,65.2,60.1,100,92,77,29.89,29.70,21,2,21,0.00
2013-10-18,66.6,59.5,53.2,60.1,49.6,46.8,87,70,56,29.99,29.79,23,2,24,0.00
2013-10-19,64.9,58.0,51.4,61.5,55.1,48.6,98,90,73,29.98,29.76,14,1,16,0.00
2013-10-20,63.9,54.9,46.6,55.8,43.8,39.7,97,67,49,30.08,29.83,23,3,27,0.00
2013-10-21,67.5,55.4,45.0,52.5,48.1,42.8,99,79,52,30.13,29.94,13,1,16,0.00
2013-10-22,64.0,57.1,50.7,55.2,50.1,41.2,92,78,59,29.94,29.79,12,1,13,0.00
2013-10-23,58.3,50.7,45.1,47.1,42.9,38.8,100,75,54,29.88,29.62,17,2,18,0.10
2013-10-24,51.3,45.7,39.9,40.3,36.1,32.7,86,70,52,30.12,29.87,19,2,21,0.00
2013-10-25,54.1,45.3,36.9,39.9,36.2,33.4,88,71,56,30.30,30.12,21,3,21,0.00
2013-10-26,56.7,46.4,33.6,39.9,35.9,31.5,93,68,50,30.29,29.92,21,2,21,0.00
2013-10-27,61.3,52.2,43.5,45.1,41.2,37.6,84,67,52,30.12,29.93,16,1,16,0.00
2013-10-28,65.5,53.4,43.9,50.7,44.9,40.1,88,74,54,30.25,30.12,8,0,8,0.00
2013-10-29,64.8,54.1,45.1,50.5,46.7,41.7,92,77,56,30.35,30.24,7,0,7,0.00
2013-10-30,64.6,56.7,51.4,59.9,55.1,50.2,100,95,84,30.30,30.13,10,0,10,0.04
2013-10-31,69.3,62.5,56.3,64.2,60.5,56.3,100,93,83,30.17,29.76,20,2,20,0.01
2013-11-1,74.5,67.7,61.3,67.3,64.3,61.2,100,89,76,29.76,29.57,24,3,27,0.14
2013-11-2,69.6,61.0,52.0,61.3,51.2,43.2,100,71,57,29.86,29.61,19,2,20,0.01
2013-11-3,57.4,50.7,42.6,45.5,38.4,29.8,86,64,38,30.42,29.86,20,2,20,0.00
2013-11-4,47.5,41.2,34.9,32.2,29.0,26.1,72,62,51,30.61,30.42,12,0,13,0.00
2013-11-5,58.3,49.5,39.6,51.3,42.7,32.0,89,78,71,30.59,30.44,6,0,7,0.00
2013-11-6,69.3,59.0,51.4,58.8,54.2,50.0,95,85,69,30.44,30.04,14,1,15,0.00
2013-11-7,62.4,54.8,45.1,59.9,49.9,30.0,100,85,54,30.06,29.85,23,4,27,0.02
2013-11-8,50.7,44.6,37.0,35.4,31.6,29.8,78,61,48,30.30,30.06,20,2,20,0.00
2013-11-9,55.9,45.8,33.1,37.6,34.0,29.1,89,65,48,30.34,30.02,16,2,17,0.00
2013-11-10,64.4,50.8,40.6,45.3,36.6,32.5,78,59,40,30.21,29.93,18,3,27,0.00
2013-11-11,58.1,49.8,38.8,39.0,36.0,32.4,79,60,47,30.29,29.98,19,2,19,0.00
2013-11-12,52.5,42.6,33.3,42.4,29.2,20.7,75,59,50,30.38,29.94,27,4,27,0.00
2013-11-13,42.6,36.6,30.9,27.1,24.4,21.7,72,61,52,30.47,30.37,22,3,22,0.00
2013-11-14,57.7,42.8,29.8,33.1,27.9,21.9,80,57,37,30.37,30.20,9,0,10,0.00
2013-11-15,61.5,47.8,36.7,44.6,34.5,29.1,93,61,40,30.27,30.17,9,0,10,0.08
2013-11-16,53.4,50.1,46.6,52.9,49.9,44.6,100,99,93,30.30,30.21,7,0,8,0.35
2013-11-17,63.3,58.1,52.2,61.0,57.2,52.2,100,97,90,30.21,29.73,16,2,16,0.01
2013-11-18,70.2,60.9,51.4,63.1,45.7,33.4,100,63,29,29.91,29.67,23,4,24,0.14
2013-11-19,51.4,45.4,40.3,33.8,31.8,28.4,67,59,50,30.35,29.91,21,5,23,0.00
2013-11-20,47.7,40.4,35.4,34.2,30.1,27.1,83,67,52,30.54,30.35,13,1,13,0.00
2013-11-21,52.2,44.5,36.1,43.5,38.4,32.7,92,79,70,30.54,30.38,6,0,6,0.00
2013-11-22,63.3,55.3,46.2,58.1,50.8,42.1,92,85,77,30.37,29.97,18,1,18,0.00
2013-11-23,59.0,45.8,33.4,53.6,33.2,17.8,83,62,45,30.19,29.99,29,8,30,0.01
2013-11-24,33.4,28.7,25.2,18.1,12.5,9.3,60,50,44,30.51,30.18,30,8,32,0.00
2013-11-25,37.8,30.6,22.8,20.3,15.9,12.6,65,54,44,30.57,30.33,13,2,14,0.00
2013-11-26,48.7,37.6,33.6,48.7,32.5,20.5,100,84,54,30.33,29.57,18,2,18,1.46
2013-11-27,41.2,38.1,30.6,40.3,34.7,19.8,100,88,63,30.03,29.48,38,8,38,0.57
2013-11-28,39.6,33.3,27.9,28.2,21.8,17.8,76,62,53,30.46,30.03,24,3,24,0.00
2013-11-29,42.4,35.8,29.8,27.5,25.6,23.5,83,67,54,30.70,30.44,20,2,20,0.00
2013-11-30,39.4,34.3,28.8,30.6,26.0,23.2,81,71,60,30.70,30.35,8,1,8,0.00
2013-12-1,49.8,40.1,29.8,37.0,32.4,26.8,92,74,59,30.35,29.99,7,0,7,0.00
2013-12-2,49.1,45.2,42.1,44.4,40.3,36.0,87,83,76,29.99,29.85,6,0,7,0.00
2013-12-3,58.5,49.0,43.0,45.7,42.0,38.8,88,77,62,29.97,29.85,8,0,8,0.00
2013-12-4,58.1,51.1,43.9,53.2,47.7,41.2,96,88,82,30.06,29.96,5,0,5,0.00
2013-12-5,70.0,60.7,54.3,64.0,59.2,52.9,100,95,79,30.04,29.90,15,2,16,0.00
2013-12-6,64.4,51.7,39.7,64.2,51.7,39.6,100,100,98,30.14,29.85,20,3,21,0.60
2013-12-7,42.4,38.4,32.9,39.7,33.6,25.7,99,83,67,30.53,30.10,23,4,23,0.60
2013-12-8,32.9,30.9,28.8,32.9,27.8,23.9,100,89,75,30.57,30.26,10,1,12,0.12
2013-12-9,35.8,34.0,32.7,35.8,34.0,32.7,100,100,99,30.29,30.01,5,0,5,0.08
2013-12-10,38.5,34.2,31.3,36.3,32.3,25.5,100,93,76,30.21,29.96,18,1,18,0.25
2013-12-11,43.2,34.7,26.8,30.2,25.9,22.1,87,71,56,30.40,30.21,8,0,9,0.25
2013-12-12,37.6,30.4,27.0,25.5,19.6,16.2,77,64,53,30.43,30.23,18,3,18,0.00
2013-12-13,43.2,35.7,26.2,27.0,22.6,17.4,81,59,45,30.29,30.20,10,1,12,0.04
2013-12-14,41.4,37.6,35.4,38.3,33.9,26.2,100,87,64,30.30,29.68,15,2,16,0.43
2013-12-15,47.3,38.8,32.4,40.8,33.9,26.4,100,83,65,29.93,29.61,24,4,24,0.00
2013-12-16,38.7,36.1,32.9,30.6,28.9,26.6,83,75,67,30.17,29.92,12,1,12,0.00
2013-12-17,39.6,36.7,34.5,37.0,33.3,29.7,96,87,80,30.14,29.91,9,1,11,0.01
2013-12-18,43.3,36.8,32.2,34.5,29.3,25.3,98,75,56,30.20,29.97,18,2,20,0.00
2013-12-19,61.2,45.6,31.3,38.7,32.9,26.2,89,64,43,30.19,30.05,13,2,15,0.00
2013-12-20,60.3,53.8,46.6,52.2,40.9,34.3,79,62,53,30.09,29.97,13,2,13,0.00
2013-12-21,71.1,62.9,55.4,64.2,56.1,48.0,91,79,69,30.00,29.87,22,4,23,0.00
2013-12-22,70.3,65.0,61.2,66.7,63.4,61.0,100,94,84,29.99,29.80,27,5,27,0.22
2013-12-23,63.3,55.4,40.3,63.3,52.9,31.8,100,92,73,30.21,29.89,23,4,23,0.75
2013-12-24,40.6,35.1,25.2,32.2,24.3,12.9,74,65,50,30.46,30.17,21,7,33,0.00
2013-12-25,34.2,27.3,21.7,23.2,17.0,13.5,85,65,51,30.56,30.37,19,2,19,0.00
2013-12-26,46.6,35.1,26.8,30.6,26.2,23.0,91,71,51,30.37,30.21,10,1,11,0.00
2013-12-27,51.1,41.3,32.5,30.7,27.2,22.3,70,57,44,30.41,30.30,11,1,11,0.00
2013-12-28,57.9,45.1,32.7,37.0,32.1,27.7,85,62,43,30.31,30.09,12,1,13,0.00
2013-12-29,49.5,46.2,42.3,47.7,42.8,33.4,100,89,58,30.09,29.50,14,2,15,1.20
2013-12-30,46.8,40.8,34.7,41.9,35.6,25.7,96,82,70,30.17,29.80,21,3,21,0.01
2013-12-31,46.4,36.8,31.6,34.7,26.4,21.7,80,66,52,30.31,30.09,27,3,27,0.00
2014-1-1,48.7,38.0,29.8,36.9,29.4,21.4,86,71,54,30.40,30.10,16,1,16,0.00
2014-1-2,38.7,35.7,31.6,36.1,33.8,31.5,99,93,82,30.10,29.59,12,1,12,0.04